Regional Weather Roundup
Issued by NWS

Home | Current Version | Previous Version | Text Only | Print | Product List | Glossary Off
Versions: 1 2 3 4 5 6 7 8 9 10 11 12 13 14 15 16 17 18 19 20 21 22 23 24 25 26 27 28 29 30 31 32 33 34 35 36 37 38 39 40 41 42 43 44 45 46 47 48 49 50

000
ASUS45 KBOI 172010
RWRID
WEATHER ROUNDUP FOR IDAHO
NATIONAL WEATHER SERVICE BOISE ID
200 PM MDT WED SEP 17 2014

NOTE: "FAIR" INDICATES FEW OR NO CLOUDS BELOW 12000 FEET
WITH NO SIGNIFICANT WEATHER AND/OR OBSTRUCTIONS TO VISIBILITY

IDZ012-014-172100-
SOUTHWEST IDAHO


CITY           SKY/WX    TMP DP  RH WIND       PRES   REMARKS
BOISE          CLOUDY    86  39  19 VRB3      29.84F
CALDWELL       CLOUDY    84  46  26 S8        29.84F
MOUNTAIN HOME  PTSUNNY   85  44  23 VRB3      29.83F
$$

IDZ016-017-172100-
SOUTHCENTRAL IDAHO


CITY           SKY/WX    TMP DP  RH WIND       PRES   REMARKS
BURLEY         MOSUNNY   87  45  23 NW5       29.90F
JEROME         PTSUNNY   84  47  27 NW3       29.91F
TWIN FALLS     PTSUNNY   84  46  26 N7        29.91F
$$

IDZ019>023-172100-
SOUTHEAST IDAHO


CITY           SKY/WX    TMP DP  RH WIND       PRES   REMARKS
IDAHO FALLS    MOSUNNY   85  45  24 CALM      29.98F
POCATELLO      SUNNY     92  39  15 VRB7G18   29.94F
REXBURG        MOSUNNY   80  46  30 SW6       29.99F
$$

IDZ006-010-011-018-031-032-172100-
CENTRAL IDAHO MOUNTAINS


CITY           SKY/WX    TMP DP  RH WIND       PRES   REMARKS
MCCALL         CLOUDY    69  47  45 S5        29.97F
HAILEY         PTSUNNY   81  46  30 SE9       30.01F
STANLEY          N/A     70  41  34 N7        30.10F
SALMON         CLOUDY    70  45  40 N3        29.95F
CHALLIS        CLOUDY    72  43  35 NE6       30.00F
$$

IDZ002-004-006-007-026-172100-
NORTHERN IDAHO


CITY           SKY/WX    TMP DP  RH WIND       PRES   REMARKS
LEWISTON       CLOUDY    80  43  26 E3        29.73F
LOWELL           N/A     73  55  53 CALM      29.78F
COEUR D`ALENE  PTSUNNY   79  45  29 E3        29.78F
MULLAN PASS    MOSUNNY   70  41  34 CALM      30.00F
$$


USA.gov is the U.S. government's official web portal to all federal, state and local government web resources and services.